When you browse on this site, cookies collect data to enhance your experience and personalize the content and advertising you see.
Visit our Privacy Policy to learn more. By continuing to use the site, you agree to this use of cookies and data.
  • In Österreich
  • Länderverzeichnis
  • Für 7 Tage
  • Wassertemperatur
  • Wetterkarte
  • News
  • Widgets
  • user-avatar
    Anmelden

    Stündliche Wetter Innsbruck

    Heute, 29 Mai, Freitag

    Zeit Temperatur Niederschläge Wind Luftdruck Luftfeuchtigkeit
    00:00 -1°C° 0.2 mm 1 m/S 599 mmHg 95%
    01:00 0°C° 0 mm 1 m/S 599 mmHg 94%
    02:00 -1°C° 0.2 mm 1 m/S 598 mmHg 94%
    03:00 -2°C° 0.2 mm 1 m/S 598 mmHg 94%
    04:00 -3°C° 0.2 mm 1 m/S 597 mmHg 94%
    05:00 -1°C° 0 mm 1 m/S 598 mmHg 89%
    06:00 0°C° 0 mm 1 m/S 599 mmHg 85%
    07:00 +2°C° 0 mm 1 m/S 599 mmHg 81%
    08:00 +3°C° 0 mm 1 m/S 600 mmHg 73%
    09:00 +4°C° 0 mm 2 m/S 600 mmHg 66%
    10:00 +5°C° 0 mm 2 m/S 600 mmHg 58%
    11:00 +5°C° 0 mm 2 m/S 600 mmHg 57%
    12:00 +6°C° 0 mm 2 m/S 600 mmHg 56%
    13:00 +6°C° 0 mm 2 m/S 600 mmHg 56%
    14:00 +6°C° 0 mm 2 m/S 599 mmHg 56%
    15:00 +6°C° 0 mm 2 m/S 599 mmHg 57%
    16:00 +6°C° 0 mm 2 m/S 598 mmHg 57%
    17:00 +5°C° 0 mm 2 m/S 598 mmHg 63%
    18:00 +5°C° 0 mm 2 m/S 598 mmHg 68%
    19:00 +4°C° 0 mm 2 m/S 597 mmHg 74%
    20:00 +3°C° 0 mm 1 m/S 597 mmHg 80%
    21:00 +1°C° 0 mm 1 m/S 596 mmHg 87%
    22:00 -1°C° 0 mm 1 m/S 595 mmHg 93%
    23:00 -1°C° 0 mm 1 m/S 595 mmHg 92%

    Morgen, 30 Mai, Samstag

    Zeit Temperatur Niederschläge Wind Luftdruck Luftfeuchtigkeit
    00:00 -1°C° 0 mm 1 m/S 595 mmHg 91%
    01:00 -1°C° 0 mm 1 m/S 595 mmHg 90%
    02:00 -2°C° 0 mm 1 m/S 595 mmHg 90%
    03:00 -2°C° 0 mm 1 m/S 595 mmHg 90%
    04:00 -2°C° 0 mm 1 m/S 594 mmHg 89%
    05:00 0°C° 0 mm 1 m/S 595 mmHg 84%
    06:00 +2°C° 0 mm 1 m/S 596 mmHg 79%
    07:00 +4°C° 0 mm 1 m/S 597 mmHg 74%
    08:00 +5°C° 0 mm 1 m/S 597 mmHg 69%
    09:00 +5°C° 0 mm 2 m/S 597 mmHg 64%
    10:00 +6°C° 0 mm 2 m/S 598 mmHg 59%
    11:00 +7°C° 0 mm 2 m/S 598 mmHg 58%
    12:00 +7°C° 0 mm 2 m/S 598 mmHg 56%
    13:00 +8°C° 0 mm 2 m/S 598 mmHg 55%
    14:00 +7°C° 0.1 mm 3 m/S 597 mmHg 58%
    15:00 +7°C° 0.1 mm 3 m/S 597 mmHg 61%
    16:00 +5°C° 0.1 mm 3 m/S 597 mmHg 64%
    17:00 +5°C° 0.1 mm 2 m/S 596 mmHg 71%
    18:00 +4°C° 0.1 mm 2 m/S 596 mmHg 77%
    19:00 +4°C° 0.1 mm 2 m/S 596 mmHg 83%
    20:00 +2°C° 0.1 mm 2 m/S 595 mmHg 88%
    21:00 +2°C° 0.1 mm 1 m/S 595 mmHg 92%
    22:00 +1°C° 0.1 mm 1 m/S 595 mmHg 97%
    23:00 +1°C° 0 mm 1 m/S 595 mmHg 96%

    übermorgen, 31 Mai, Sonntag

    Zeit Temperatur Niederschläge Wind Luftdruck Luftfeuchtigkeit
    00:00 +1°C° 0 mm 1 m/S 595 mmHg 96%
    01:00 +1°C° 0 mm 1 m/S 595 mmHg 95%
    02:00 0°C° 0 mm 0 m/S 595 mmHg 95%
    03:00 -1°C° 0 mm 0 m/S 595 mmHg 95%
    04:00 -1°C° 0 mm 0 m/S 595 mmHg 95%
    05:00 0°C° 0 mm 0 m/S 595 mmHg 90%
    06:00 +1°C° 0 mm 0 m/S 596 mmHg 85%
    07:00 +2°C° 0 mm 0 m/S 596 mmHg 80%
    08:00 +5°C° 0 mm 1 m/S 596 mmHg 75%
    09:00 +6°C° 0 mm 1 m/S 597 mmHg 69%
    10:00 +6°C° 0 mm 2 m/S 597 mmHg 64%
    11:00 +7°C° 0 mm 2 m/S 597 mmHg 62%
    12:00 +7°C° 0 mm 2 m/S 597 mmHg 60%
    13:00 +8°C° 0 mm 2 m/S 597 mmHg 59%
    14:00 +8°C° 0 mm 2 m/S 597 mmHg 57%
    15:00 +8°C° 0 mm 2 m/S 597 mmHg 56%
    16:00 +8°C° 0 mm 2 m/S 598 mmHg 54%
    17:00 +7°C° 0 mm 2 m/S 597 mmHg 60%
    18:00 +6°C° 0 mm 2 m/S 597 mmHg 65%
    19:00 +5°C° 0 mm 2 m/S 597 mmHg 70%
    20:00 +3°C° 0 mm 2 m/S 596 mmHg 78%
    21:00 +2°C° 0 mm 1 m/S 596 mmHg 86%
    22:00 0°C° 0 mm 1 m/S 595 mmHg 94%
    23:00 0°C° 0 mm 1 m/S 595 mmHg 93%

    1 Juni, Montag

    Zeit Temperatur Niederschläge Wind Luftdruck Luftfeuchtigkeit
    00:00 0°C° 0 mm 1 m/S 595 mmHg 92%
    01:00 0°C° 0 mm 1 m/S 595 mmHg 92%
    02:00 0°C° 0 mm 1 m/S 595 mmHg 89%
    03:00 -1°C° 0 mm 1 m/S 595 mmHg 87%
    04:00 -1°C° 0 mm 1 m/S 594 mmHg 85%
    05:00 +1°C° 0 mm 1 m/S 595 mmHg 77%
    06:00 +4°C° 0 mm 1 m/S 596 mmHg 70%
    07:00 +6°C° 0 mm 1 m/S 597 mmHg 63%
    08:00 +8°C° 0 mm 1 m/S 598 mmHg 58%
    09:00 +9°C° 0 mm 1 m/S 599 mmHg 53%
    10:00 +10°C° 0 mm 2 m/S 599 mmHg 49%
    11:00 +12°C° 0 mm 2 m/S 600 mmHg 46%
    12:00 +13°C° 0 mm 2 m/S 600 mmHg 44%
    13:00 +14°C° 0 mm 2 m/S 600 mmHg 41%
    14:00 +12°C° 0 mm 3 m/S 600 mmHg 44%
    15:00 +12°C° 0 mm 3 m/S 600 mmHg 46%
    16:00 +12°C° 0 mm 3 m/S 600 mmHg 48%
    17:00 +11°C° 0 mm 3 m/S 599 mmHg 58%
    18:00 +9°C° 0 mm 2 m/S 599 mmHg 67%
    19:00 +8°C° 0 mm 2 m/S 598 mmHg 77%
    20:00 +6°C° 0 mm 2 m/S 598 mmHg 83%
    21:00 +5°C° 0 mm 1 m/S 597 mmHg 90%
    22:00 +3°C° 0 mm 1 m/S 596 mmHg 96%
    23:00 +3°C° 0 mm 1 m/S 596 mmHg 96%

    2 Juni, Dienstag

    Zeit Temperatur Niederschläge Wind Luftdruck Luftfeuchtigkeit
    00:00 +2°C° 0 mm 1 m/S 596 mmHg 95%
    01:00 +2°C° 0 mm 1 m/S 595 mmHg 95%
    02:00 +2°C° 0 mm 1 m/S 595 mmHg 94%
    03:00 +1°C° 0 mm 1 m/S 595 mmHg 92%
    04:00 +1°C° 0 mm 1 m/S 595 mmHg 90%
    05:00 +3°C° 0 mm 1 m/S 596 mmHg 84%
    06:00 +5°C° 0 mm 1 m/S 597 mmHg 77%
    07:00 +8°C° 0 mm 1 m/S 598 mmHg 70%
    08:00 +9°C° 0 mm 1 m/S 599 mmHg 60%
    09:00 +11°C° 0 mm 1 m/S 599 mmHg 51%
    10:00 +13°C° 0 mm 2 m/S 600 mmHg 41%
    11:00 +14°C° 0 mm 2 m/S 600 mmHg 39%
    12:00 +14°C° 0 mm 2 m/S 600 mmHg 37%
    13:00 +15°C° 0 mm 2 m/S 600 mmHg 35%
    14:00 +14°C° 0 mm 3 m/S 599 mmHg 37%
    15:00 +14°C° 0 mm 3 m/S 599 mmHg 39%
    16:00 +13°C° 0 mm 3 m/S 598 mmHg 41%
    17:00 +13°C° 0.2 mm 2 m/S 598 mmHg 50%
    18:00 +10°C° 0.2 mm 2 m/S 597 mmHg 60%
    19:00 +9°C° 0.2 mm 2 m/S 596 mmHg 70%
    20:00 +7°C° 0 mm 1 m/S 595 mmHg 77%
    21:00 +5°C° 0 mm 1 m/S 594 mmHg 84%
    22:00 +3°C° 0 mm 1 m/S 593 mmHg 91%
    23:00 +3°C° 0 mm 1 m/S 593 mmHg 90%

    3 Juni, Mittwoch

    Zeit Temperatur Niederschläge Wind Luftdruck Luftfeuchtigkeit
    00:00 +2°C° 0 mm 1 m/S 592 mmHg 90%
    01:00 +2°C° 0 mm 1 m/S 592 mmHg 89%
    02:00 +2°C° 0 mm 1 m/S 591 mmHg 89%
    03:00 +2°C° 0 mm 1 m/S 591 mmHg 88%
    04:00 +2°C° 0 mm 1 m/S 591 mmHg 88%
    05:00 +4°C° 0 mm 1 m/S 592 mmHg 81%
    06:00 +7°C° 0 mm 1 m/S 592 mmHg 74%
    07:00 +9°C° 0 mm 1 m/S 593 mmHg 67%
    08:00 +11°C° 0 mm 1 m/S 594 mmHg 59%
    09:00 +13°C° 0 mm 1 m/S 594 mmHg 50%
    10:00 +14°C° 0 mm 1 m/S 595 mmHg 42%
    11:00 +15°C° 0.1 mm 1 m/S 595 mmHg 40%
    12:00 +15°C° 0.1 mm 1 m/S 594 mmHg 39%
    13:00 +16°C° 0.1 mm 2 m/S 594 mmHg 37%
    14:00 +15°C° 0.2 mm 2 m/S 594 mmHg 41%
    15:00 +15°C° 0.2 mm 2 m/S 593 mmHg 45%
    16:00 +14°C° 0.2 mm 2 m/S 593 mmHg 50%
    17:00 +13°C° 0.3 mm 2 m/S 592 mmHg 60%
    18:00 +10°C° 0.3 mm 2 m/S 591 mmHg 70%
    19:00 +10°C° 0.3 mm 1 m/S 590 mmHg 81%
    20:00 +8°C° 0.1 mm 2 m/S 590 mmHg 84%
    21:00 +7°C° 0.1 mm 2 m/S 590 mmHg 87%
    22:00 +5°C° 0.1 mm 2 m/S 590 mmHg 90%
    23:00 +5°C° 0 mm 2 m/S 589 mmHg 91%
    Mehr zeigen